Вернуться в каталог

STARLINK-31623

АктивенСвязьVLEO
NORAD 59272·PAYLOAD·🇺🇸 United States

Запущен Mar 19, 2024 с Vandenberg Space Force Base

Loading…

Ближайшие Пролёты (ближайшие 24 часа)

TLE

СвежийSource: CelesTrak SupGP

Эпоха: Sep 15, 2026, 02:16 UTC

1 59272C 24050U   26258.09493056  .00024537  00000+0  72475-3 0  2581
2 59272  53.1596  18.6263 0001027  98.9616 277.9208 15.34387897    12

Отслеживайте STARLINK-31623 в реальном времени с AllMySat

Download on the App Store